RH
91 90 90 90 88 90 89 88 87 85 83 81 79 78 79 82 76 25 9 16 18 69 66 13 12 11 10 15 18 30 45 52 51 47 42 32 32 34 34 36 42 38 39 41 47
93 91 90 91 90 90 90 88 87 85 82 80 79 78 79 84 30 11 28 54 66 66 12 13 12 14 19 22 26 30 42 49 41 36 36 30 31 34 39 40 46 50 46 45 49
94 94 92 91 90 90 90 88 88 85 82 80 79 78 80 77 15 11 51 64 67 48 16 14 14 19 24 25 29 32 39 38 34 29 28 30 32 34 38 43 40 50 51 52 52
93 94 95 93 92 91 90 89 87 85 82 81 79 77 81 35 16 12 60 56 52 20 13 14 18 23 28 29 27 34 31 31 30 27 28 31 32 36 34 36 37 43 47 50 49
93 95 95 95 94 93 91 89 87 84 83 82 79 80 42 16 16 14 49 29 9 10 12 15 21 25 28 27 27 31 30 27 26 27 29 28 31 34 40 40 41 43 47 50 50
90 94 94 95 95 93 91 88 86 85 83 82 79 84 29 17 13 16 13 10 9 11 18 17 19 22 26 29 29 28 27 26 26 27 28 31 33 30 40 40 44 45 49 51 53
88 91 94 92 95 94 91 88 86 84 82 80 81 48 24 19 17 17 13 9 9 10 15 19 20 20 24 29 24 25 30 26 27 27 30 27 32 32 36 40 45 47 51 54 53
88 89 93 93 96 95 92 88 83 81 80 80 78 33 25 13 16 11 8 9 10 10 16 20 20 24 25 24 24 28 29 36 27 26 29 27 29 33 38 42 47 49 54 55 55
89 89 90 93 96 96 91 85 78 79 79 77 38 27 20 19 13 9 8 10 11 13 16 15 20 25 25 28 30 31 35 36 32 26 27 30 31 34 38 41 47 50 54 55 60
91 90 90 95 97 95 90 78 66 69 52 39 23 22 16 15 14 10 10 11 13 17 16 19 24 26 27 27 29 34 35 35 33 28 29 31 32 36 37 39 44 49 55 56 59
91 90 93 96 97 94 72 41 41 33 39 21 17 20 16 17 14 10 10 13 14 18 20 18 25 29 28 28 26 29 32 31 32 28 32 32 28 32 36 36 42 49 54 56 59
92 92 92 96 96 89 56 46 52 52 50 38 39 34 28 22 15 12 10 15 18 19 18 19 27 26 25 20 25 28 30 33 30 31 30 34 31 31 33 35 34 44 52 55 62
94 93 94 97 93 62 50 47 42 53 49 32 30 27 16 16 13 13 12 15 18 20 19 23 18 25 24 23 23 23 24 31 27 34 33 36 36 36 30 31 32 40 47 53 58
94 94 96 86 69 56 47 44 49 57 34 23 27 23 14 12 16 11 11 14 17 21 21 18 14 16 21 23 21 26 22 25 34 33 33 33 30 32 34 35 36 43 55 56 60
95 96 94 73 73 57 45 55 61 48 36 19 21 15 14 15 13 12 11 15 19 19 19 21 17 16 17 16 17 18 23 26 29 25 24 34 31 26 37 37 35 41 52 55 58
96 96 90 76 67 58 57 67 54 38 39 20 17 16 16 15 11 10 12 15 17 16 15 15 12 13 14 17 16 19 19 21 24 23 27 25 27 18 31 34 33 36 48 54 60
98 97 83 56 59 65 74 51 42 47 24 19 18 18 18 18 13 13 16 18 18 25 22 15 14 12 14 16 15 16 18 24 24 24 20 25 35 23 29 32 32 37 43 55 59
98 95 89 74 73 81 69 49 44 33 28 20 19 20 21 20 18 12 18 18 16 20 19 20 22 14 14 16 17 18 18 33 21 22 23 26 26 18 35 37 36 33 41 56 62
92 83 87 82 73 77 62 64 53 33 25 22 19 20 21 19 21 14 21 20 19 19 23 26 23 12 14 14 15 19 20 20 30 33 26 18 19 34 36 41 42 48 57 63 62
87 90 86 86 76 82 70 71 45 35 37 31 22 22 25 22 19 20 20 18 19 19 20 26 25 15 12 10 13 17 17 22 26 23 21 20 23 19 30 36 45 54 58 65 63
89 88 83 87 78 78 82 72 57 35 34 33 31 28 26 25 22 22 20 17 16 17 20 22 27 19 13 14 13 15 17 27 24 30 23 22 17 29 32 33 41 47 57 62 64
93 85 80 84 74 85 86 69 60 37 35 35 35 34 33 33 28 25 23 21 19 24 21 24 36 31 18 15 12 14 19 25 29 29 40 33 30 34 38 38 39 47 59 58 62
93 91 82 77 82 82 71 52 45 45 42 39 38 38 32 35 40 33 32 30 32 26 32 31 35 31 22 21 19 16 18 25 32 38 42 35 27 33 38 39 42 54 58 62 67
88 94 92 83 76 71 63 56 50 42 37 37 39 34 37 38 36 40 34 32 32 25 56 46 37 38 30 28 25 25 17 25 26 34 36 31 26 23 28 40 55 57 58 62 65
91 88 82 96 91 68 63 57 55 51 37 33 34 32 37 42 44 39 32 34 27 44 37 36 39 34 34 30 23 20 17 23 20 24 28 24 24 20 30 41 54 60 63 65 67
96 89 73 80 83 79 72 63 52 48 46 41 42 42 42 44 38 40 35 36 35 28 36 41 43 39 41 34 29 27 22 18 19 22 22 22 23 36 54 55 59 61 63 64 66
91 86 70 75 86 84 79 61 57 53 50 37 47 51 51 47 45 47 47 42 40 38 47 46 53 51 39 40 32 39 36 27 27 24 24 29 26 43 49 51 55 57 57 61 63
Wind_Speed
11 11 12 13 13 14 15 16 17 18 18 19 20 20 19 19 17 2 2 3 5 7 1 3 4 3 3 6 6 3 5 6 9 13 10 12 7 5 5 7 5 3 10 17 17
11 11 12 13 13 14 15 16 17 18 19 20 21 21 19 16 3 2 2 6 5 6 3 4 3 3 6 5 5 4 3 7 6 8 12 10 7 10 6 11 10 19 19 17 14
11 12 12 13 13 15 15 16 17 19 20 20 21 21 18 11 1 2 4 7 4 1 3 3 4 4 7 5 5 5 4 8 5 10 15 10 8 4 17 5 11 22 18 14 13
10 11 12 13 14 15 16 17 18 19 20 20 21 22 23 2 3 2 8 8 5 2 3 2 4 5 6 5 3 9 8 6 11 9 10 10 9 13 3 4 16 18 17 14 12
9 9 11 13 13 14 16 17 19 20 20 19 20 18 8 3 5 2 8 9 3 3 3 2 4 5 7 8 8 12 8 9 13 15 11 11 8 8 7 15 18 17 15 13 12
9 9 11 12 13 15 16 18 19 20 20 18 17 16 3 2 1 4 6 4 4 5 7 3 5 11 13 7 6 9 18 15 10 10 8 11 6 2 7 16 17 16 14 12 12
9 10 10 12 14 15 17 19 20 21 20 17 12 2 2 10 2 7 3 1 1 1 4 3 7 5 8 13 14 19 19 12 8 5 4 15 3 4 16 17 16 14 12 12 11
10 10 10 12 13 15 18 20 22 22 20 10 3 1 7 4 5 4 0 2 4 4 7 12 13 13 7 18 5 8 6 7 7 6 8 2 3 7 18 19 17 15 13 11 10
9 9 10 11 13 15 19 24 24 16 10 5 2 1 8 9 2 2 1 2 2 4 6 4 7 7 7 14 6 1 6 4 8 11 9 10 1 12 17 17 16 14 13 12 10
9 9 10 10 13 15 21 24 14 8 2 2 0 2 3 3 5 4 1 3 5 5 4 5 6 4 5 5 5 8 5 5 8 14 10 11 6 15 18 18 17 15 13 12 11
9 9 9 10 12 14 12 7 6 2 6 2 2 3 4 8 3 2 2 3 3 5 4 2 4 9 20 4 2 9 6 6 4 7 7 14 10 15 19 18 18 17 15 13 12
8 7 9 10 11 14 1 5 4 3 8 3 6 6 6 2 3 3 1 3 2 4 4 3 5 10 8 3 7 7 5 4 3 4 13 6 17 7 20 24 21 19 17 15 12
6 6 8 10 11 4 2 5 3 6 3 7 5 4 4 7 3 4 3 2 3 4 3 5 1 11 10 7 4 2 3 5 2 7 2 5 8 9 12 16 15 16 17 15 15
6 5 8 12 2 3 0 3 4 4 3 6 3 6 4 5 3 2 1 3 2 6 6 2 3 7 7 5 6 4 4 7 14 9 3 4 5 6 11 16 14 16 17 17 15
4 3 5 5 2 1 3 7 2 1 2 2 3 0 2 7 4 1 1 3 5 4 3 4 5 5 4 3 4 2 6 6 4 4 2 4 5 3 2 11 19 16 17 17 16
3 1 1 1 1 3 7 6 1 4 7 1 2 3 4 2 1 2 3 5 3 3 4 2 1 1 3 4 2 13 6 6 4 2 3 2 5 4 5 4 4 14 18 18 17
2 2 3 1 1 6 6 3 4 4 4 2 2 3 3 3 1 2 4 3 4 4 2 2 2 1 4 7 3 3 4 1 1 2 4 1 5 7 3 5 5 15 18 18 17
4 4 1 2 3 6 4 4 4 2 4 4 3 3 5 5 2 2 4 3 1 3 3 6 3 5 2 2 5 3 3 5 4 3 0 3 6 2 1 6 7 6 13 16 17
7 2 2 2 2 1 3 2 6 4 3 6 3 1 2 2 4 2 4 5 6 8 5 5 2 1 3 2 1 4 4 2 6 2 2 2 5 4 2 3 5 10 13 15 16
3 2 1 6 2 3 4 3 2 3 4 2 2 1 2 2 3 5 6 3 5 7 3 6 3 2 1 2 5 2 7 4 1 4 4 2 5 4 2 5 7 9 12 14 14
2 3 2 3 2 4 3 5 3 4 3 4 4 4 3 4 3 3 2 2 4 4 2 5 3 1 2 4 7 3 3 4 4 2 2 3 4 3 2 2 10 11 13 16 15
2 3 3 1 4 1 4 4 2 3 4 5 3 4 3 6 4 3 6 3 1 4 8 2 5 4 3 1 2 3 5 6 4 5 1 0 6 2 4 5 7 10 13 14 14
3 2 1 1 4 1 2 2 2 4 5 5 3 3 2 3 4 3 6 5 5 2 8 7 1 3 1 1 1 5 5 4 6 3 7 4 3 2 2 1 3 12 13 14 14
3 3 2 2 1 5 4 0 2 4 3 3 5 1 3 4 1 5 6 3 6 3 5 5 3 6 8 4 4 5 6 7 5 4 6 6 3 4 4 3 6 9 12 14 13
2 2 3 5 3 2 4 4 6 4 2 1 0 2 3 3 5 2 2 5 2 1 3 1 5 2 3 2 2 3 7 11 8 5 6 2 6 4 2 2 8 10 13 14 14
3 3 1 3 3 9 0 5 5 4 3 3 3 7 7 7 6 13 3 3 6 2 1 2 3 2 0 2 0 3 4 10 5 3 6 2 6 2 3 8 10 12 14 15 14
0 1 2 2 4 6 7 4 6 3 4 2 1 2 4 5 4 5 5 2 2 3 4 2 6 3 3 2 2 5 9 10 5 4 6 6 3 5 4 6 9 12 14 15 15
Wind_Direction
340 343 341 342 342 337 336 336 334 329 331 331 331 331 331 330 315 142 54 272 286 326 245 322 75 109 69 70 51 110 95 154 152 166 144 154 135 66 59 112 60 54 134 126 135
337 339 340 339 338 335 332 333 329 327 329 332 330 329 328 333 319 28 322 300 303 284 53 35 113 70 66 63 44 57 108 156 155 137 145 142 120 125 109 113 99 96 107 125 131
335 335 335 334 337 332 329 329 325 327 327 330 328 327 325 323 24 239 326 315 1 152 102 116 95 76 69 45 23 48 105 138 102 117 129 124 108 103 128 124 162 147 140 136 128
334 333 331 332 333 331 327 326 323 325 325 328 327 326 320 270 176 226 336 334 347 172 83 65 59 69 73 74 49 103 49 113 127 122 111 126 117 128 354 140 141 141 137 135 133
325 331 328 329 329 328 325 323 321 322 322 324 323 328 345 6 247 324 334 353 21 25 33 98 72 110 98 99 92 94 108 74 104 96 93 108 112 118 105 126 132 137 136 134 124
323 324 327 327 325 325 322 320 318 317 316 317 318 320 343 274 313 343 337 1 32 28 45 49 117 109 82 51 41 105 103 106 87 94 104 121 130 135 156 145 141 141 134 132 124
322 320 323 326 325 322 319 317 313 311 309 310 308 338 311 245 345 314 309 45 75 80 96 92 130 74 118 94 111 109 101 92 91 101 108 122 183 219 156 161 148 144 138 136 133
317 318 318 321 321 320 317 312 307 306 305 304 284 122 255 252 315 304 70 31 31 68 84 98 89 88 83 129 114 106 94 135 180 156 164 221 200 173 165 165 163 157 153 146 135
308 314 315 320 319 319 315 308 302 298 293 253 113 136 270 315 307 322 98 91 52 67 74 102 71 86 128 125 111 48 159 147 174 206 165 221 202 172 174 178 173 171 166 154 140
302 313 315 321 320 320 317 300 295 305 206 176 346 350 295 322 306 332 11 87 91 102 99 52 68 104 141 187 173 176 167 182 184 191 193 193 226 173 182 187 186 182 176 168 160
296 310 314 321 321 324 338 350 9 351 24 240 241 251 276 297 274 333 355 91 90 72 150 67 133 180 183 181 146 146 145 175 210 173 166 215 240 185 188 199 194 192 185 179 166
286 307 312 320 322 323 2 68 106 273 313 275 249 266 258 232 310 297 100 127 107 166 135 116 210 206 155 106 105 137 146 186 82 154 198 196 245 208 196 209 204 193 189 180 162
281 308 316 318 325 20 29 108 322 153 243 292 222 228 208 151 230 259 142 132 132 142 165 175 263 141 160 179 162 143 181 172 163 114 136 142 253 215 216 215 211 200 192 183 177
277 317 328 317 16 323 354 354 333 168 24 269 252 266 176 141 269 242 168 131 59 172 149 136 136 137 150 193 174 249 173 144 140 150 210 202 276 239 213 215 213 194 186 182 176
269 332 345 22 294 323 337 335 296 106 357 241 213 87 22 160 151 31 348 69 167 152 164 181 159 146 143 198 140 159 136 126 136 117 157 177 268 243 147 230 221 202 192 185 178
236 33 1 349 31 281 328 314 88 44 251 301 214 161 115 350 92 105 116 57 120 93 39 85 27 79 127 71 101 147 97 64 67 92 248 222 229 260 203 227 243 199 196 183 172
195 123 141 37 263 335 319 44 58 178 336 312 233 161 135 159 177 134 152 146 167 132 153 38 356 24 120 92 69 100 114 321 270 189 249 139 190 278 221 253 267 204 194 178 167
118 119 176 236 305 351 358 59 168 260 278 325 6 48 183 158 193 124 119 186 205 94 131 161 210 177 174 150 171 173 167 168 246 217 278 148 238 255 265 309 275 213 173 164 161
133 106 286 316 32 59 67 134 201 227 307 333 313 114 267 248 159 152 194 199 202 176 185 165 197 24 47 127 166 165 197 124 108 82 231 232 262 201 259 44 119 138 154 164 161
127 108 272 328 120 63 78 222 227 239 301 339 360 46 251 257 182 175 183 202 203 186 181 187 117 358 135 115 47 173 140 129 51 226 249 227 270 262 244 211 183 176 171 166 162
97 114 329 331 70 53 171 218 280 280 324 30 18 340 343 325 229 222 213 243 186 148 111 135 116 249 154 202 176 149 172 62 112 160 229 289 249 204 232 236 209 193 174 171 167
116 103 333 330 87 51 160 202 352 323 344 27 94 64 14 340 294 255 227 274 11 161 156 173 116 160 189 222 189 190 190 165 160 186 86 354 270 143 274 289 219 172 169 171 164
107 100 7 73 149 158 245 245 353 8 11 18 27 27 353 354 343 7 344 356 334 227 169 186 140 111 32 340 215 218 187 140 106 106 187 169 259 192 319 6 151 152 164 164 157
116 110 56 72 107 149 124 72 169 341 274 223 268 163 23 22 307 317 336 326 330 307 355 93 147 173 209 190 139 195 177 174 144 158 157 229 269 237 254 224 146 156 162 160 157
38 172 176 162 184 131 171 193 178 247 250 225 25 168 115 318 342 246 228 308 284 327 340 152 206 131 34 15 193 198 179 180 197 157 189 197 205 281 350 260 170 157 152 154 157
133 132 27 102 122 172 157 212 172 215 214 257 259 274 268 249 229 287 216 191 246 343 247 308 195 125 58 356 25 225 178 189 198 179 257 202 260 87 74 108 141 162 163 165 166
192 354 117 349 108 149 212 198 210 228 279 197 357 323 333 278 292 257 211 178 251 275 201 200 144 127 220 15 12 289 219 188 178 172 155 191 193 160 142 153 166 167 171 170 170